#timestamp,LO_Frequency,Hit,StdDev 
1657508415.5,286046999.7,N
1657508435.3,286047000.8,N
1657508455.1,286047002.8,N
1657508475.9,286047004.3,Y
1657508495.7,286047002.4,P
1657508515.6,286047001.0,N
1657508535.4,286046997.7,P
1657508555.2,286046997.2,N
1657508575.1,286046997.9,N
1657508576.0,286046997.9,N
1657508595.8,286046997.7,N
1657508615.7,286046997.8,N
1657508635.5,286046996.1,N
1657508655.3,286046998.6,N
1657508675.2,286046998.0,N
1657508695.9,286046997.3,N
1657508715.7,286046997.5,N
1657508735.6,286046996.3,N
1657508755.4,286046994.3,Y
1657508775.3,286046994.5,P
1657508795.1,286046995.2,N
1657508796.0,286046995.2,N
1657508815.8,286046997.6,N
1657508835.7,286046993.3,Y
1657508855.5,286046999.5,P
1657508875.4,286047001.2,N
1657508895.2,286047000.0,N
1657508915.0,286046998.9,N
1657508915.9,286046998.9,N
1657508935.8,286047000.9,N
1657508955.6,286046998.7,N
1657508975.4,286046998.9,N
1657508995.3,286047002.6,N
1657509015.1,286047000.5,N
1657509035.9,286047001.9,N
1657509055.7,286047000.8,N
1657509075.5,286046998.9,N
1657509095.4,286047000.1,N
1657509115.2,286047000.8,N
1657509135.0,286046998.4,N
1657509135.9,286046998.4,N
1657509155.8,286046998.9,N
1657509175.6,286046999.5,N
1657509195.5,286046995.0,Y
1657509215.3,286046997.2,P
1657509235.1,286046999.3,N
1657509255.9,286046998.5,N
1657509275.7,286046999.5,N
1657509295.6,286046995.2,Y
1657509315.4,286046998.7,P
1657509335.2,286046999.3,P
1657509355.1,286046998.1,P
1657509356.0,286046998.1,Y
1657509375.8,286047002.0,P
1657509395.7,286047000.4,N
1657509415.5,286047002.4,N
1657509435.3,286047003.0,N
1657509455.2,286047003.7,N
1657509475.0,286047005.8,Y
1657509475.9,286047005.8,P
1657509495.7,286047003.9,N
1657509515.6,286047005.1,P
1657509535.4,286047008.7,Y
1657509555.3,286047001.9,P
1657509575.1,286047002.4,N
1657509595.8,286047002.4,N
1657509615.7,286046996.9,Y
1657509635.5,286046994.4,P
1657509655.4,286046991.9,N
1657509675.2,286046994.7,N
1657509695.0,286046995.1,N
1657509695.9,286046995.1,N
1657509715.8,286046996.3,N
1657509735.6,286046994.8,N
1657509755.4,286046994.8,N
1657509775.3,286046997.2,N
1657509795.1,286046995.8,N
1657509815.9,286046995.3,N
1657509835.7,286046996.5,N
1657509855.5,286046995.5,N
1657509875.4,286046994.0,N
1657509895.2,286046995.0,N
1657509915.1,286046996.4,N
1657509916.0,286046996.4,N
1657509935.8,286046995.9,N
1657509955.6,286046999.2,N
1657509975.5,286046993.6,Y
1657509995.3,286047002.7,P
1657510015.1,286047000.0,N
1657510035.9,286046999.5,N
1657510055.7,286046997.2,N
1657510075.6,286046997.1,N
1657510095.4,286046998.5,N
1657510115.2,286046998.4,N
1657510135.1,286047000.9,N
1657510136.0,286047000.9,N
1657510155.8,286047002.4,N
1657510175.6,286047001.4,N
1657510195.5,286047005.9,N
1657510215.3,286047006.7,N
1657510235.2,286047008.9,N
1657510255.9,286047007.3,N
1657510275.7,286047004.0,N
1657510295.6,286047001.3,N
1657510315.4,286046998.6,N
1657510335.2,286046996.9,N
1657510355.1,286046995.4,N
1657510356.0,286046995.4,N
1657510375.8,286046996.8,N
1657510395.7,286046999.1,N
1657510415.5,286046993.3,N
1657510435.3,286046997.2,N
1657510455.2,286047000.8,N
1657510475.0,286046998.5,N
1657510475.9,286046998.5,N
1657510495.8,286046999.6,N
1657510515.6,286046998.9,N
1657510535.4,286047001.8,N
1657510555.3,286046997.0,N
1657510575.1,286046997.0,N
1657510595.8,286046997.1,N
1657510615.7,286046998.7,N
1657510635.5,286047002.1,N
1657510655.4,286047001.6,N
1657510675.2,286047002.2,N
1657510695.0,286046998.2,N
1657510695.9,286046998.2,N
1657510715.8,286047000.1,N
1657510735.6,286047000.2,N
1657510755.5,286047003.9,N
1657510775.3,286047003.4,N
1657510795.1,286047001.7,N
1657510815.9,286047001.4,N
1657510835.7,286047000.4,N
1657510855.5,286047002.2,N
1657510875.4,286047002.2,N
1657510895.2,286046999.9,N
1657510915.1,286047000.6,N
1657510916.0,286047000.6,N
1657510935.8,286046999.5,N
1657510955.6,286046995.2,N
1657510975.5,286046994.9,N
1657511025.3,286047000.9,E
1657511035.3,286046997.0,N
1657511055.1,286046994.9,P
1657511075.8,286046994.2,P
1657511095.7,286046993.9,Y
1657511115.5,286046996.7,P
1657511135.4,286046997.0,P
1657511155.2,286046999.1,N
1657511175.0,286046999.0,N
1657511175.9,286046999.0,N
1657511195.8,286047000.5,N
1657511215.6,286047000.8,N
1657511235.4,286046998.2,N
1657511255.3,286047002.4,N
1657511275.1,286046999.9,N
1657511325.9,286047005.0,E
1657511335.8,286047004.4,N
1657511355.7,286046997.0,P
1657511375.5,286047000.2,N
1657511395.3,286046999.6,N
1657511415.2,286046997.1,N
1657511435.9,286046995.1,N
1657511455.7,286046995.0,N
1657511475.6,286046995.7,N
1657511495.4,286046997.1,N
1657511515.2,286046995.2,N
1657511535.1,286046995.1,N
1657511536.0,286046995.1,N
1657511555.8,286046996.4,N
1657511575.7,286046996.0,N
1657511595.5,286046995.2,N
1657511615.3,286046999.6,N
1657511635.2,286046999.5,N
1657511655.0,286046999.9,N
1657511655.9,286046999.9,N
1657511675.8,286046997.6,N
1657511695.6,286046995.3,N
1657511715.4,286046997.4,N
1657511735.3,286046999.5,N
1657511755.1,286046998.8,N
1657511775.8,286046999.4,N
1657511795.7,286046995.3,N
1657511815.5,286046997.7,N
1657511835.4,286046999.9,N
1657511855.2,286047002.2,N
1657511875.0,286047000.4,N
1657511875.9,286047000.4,N
1657511895.8,286047002.2,N
1657511915.6,286046999.4,N
1657511935.4,286047001.0,N
1657511955.3,286046999.1,N
1657511975.1,286046996.7,N
1657511995.9,286046996.6,N
